Regional Weather Roundup
Issued by NWS

Home | Current Version | Previous Version | Graphics & Text | Print | Product List | Glossary On
Versions: 1 2 3 4 5 6 7 8 9 10 11 12 13 14 15 16 17 18 19 20 21 22 23 24 25 26 27 28 29 30 31 32 33 34 35 36 37 38 39 40 41 42 43 44 45 46 47 48 49 50
000
ASUS43 KLOT 021106
RWRIL

ILLINOIS REGIONAL WEATHER ROUNDUP
NATIONAL WEATHER SERVICE CHICAGO/ROMEOVILLE IL
600 AM CDT TUE SEP 02 2014

NOTE: "FAIR" INDICATES FEW OR NO CLOUDS BELOW 12,000 FEET WITH NO
SIGNIFICANT WEATHER AND/OR OBSTRUCTIONS TO VISIBILITY.

* THESE STATIONS ARE NOT UNDER NWS QUALITY CONTROL. THEY ALSO MAY NOT
  REPORT WEATHER SUCH AS PRECIPITATION OR FOG.

ILZ001-002-007-009-015-016-024-021200-
NORTHWEST ILLINOIS

CITY           SKY/WX    TMP DP  RH WIND       PRES   REMARKS
MOLINE         FOG       60  59  96 CALM      29.88S VSB 1/2
STERLING*      CLOUDY    63  61  94 CALM      29.88F VSB 1/4
SAVANNA*       FOG       61  59  95 CALM      29.88S VSB 1/4
$$

ILZ003-004-008-010-011-017-018-021200-
NORTH CENTRAL ILLINOIS

CITY           SKY/WX    TMP DP  RH WIND       PRES   REMARKS
ROCKFORD       MOCLDY    62  60  93 S3        29.90F
FREEPORT*      FOG       59  58  96 CALM      29.91S VSB 1/2
ROCHELLE*      FOG       61  60  97 CALM      29.89S VSB 1/4
DE KALB*       MOCLDY    62  61  97 W3        29.89S FOG
PERU*          MOCLDY    66  65  97 CALM      29.88S
$$

ILZ005-006-012>014-019>023-021200-
NORTHEAST ILLINOIS

CITY           SKY/WX    TMP DP  RH WIND       PRES   REMARKS
CHICAGO-OHARE  MOCLDY    68  63  84 NW7       29.87S
CHICAGO-MIDWAY CLOUDY    71  68  90 S5        29.86F
AURORA         MOCLDY    64  62  93 CALM      29.88S FOG
LANSING*         N/A    N/A N/A N/A MISG        N/A
JOLIET*        FOG       65  63  94 CALM      29.89R VSB 1/2
WAUKEGAN       PTCLDY    65  63  93 W5        29.86F
DUPAGE AIRPORT MOCLDY    65  64  97 NW5       29.87S
KANKAKEE*      CLOUDY    69  67  95 SW6       29.89S
WHEELING       MOCLDY    68  65  90 CALM      29.88F
MORRIS*        CLOUDY    67  67 100 CALM      29.88R
ROMEOVILLE*    CLOUDY    64  64 100 SW5       29.88R FOG
NORTHERLY ISL    N/A     71  66  84 W6          N/A
$$

LMZ740>746-021200-
SOUTHERN LAKE MICHIGAN

STATION/POSITION SKY/WX   TEMP    WIND        PRES    VSBY  WAVE
                          AIR SEA DIR/SP/G                  HT/PER
                          (F)     (DEG/KT/KT) (MB)    (MI)  (FT/S)
SOUTHERN BUOY              69 69  290/  6/  8 1011.0F         1/ 3
WAUKEGAN HARBOR            67     250/  2/  5   N/A
HARRISON CRIB              70     310/  4/  5   N/A
BURNHAM HARBOR             71     210/  2/  7   N/A
CALUMET HARBOR             70     200/  4/  6 1010.1F
MICHIGAN CITY              70     200/  5/  6   N/A
MICHIGAN CITY 6N           71 72  240/  8/ 10   N/A           1/ 3
ST. JOSEPH                 71 72  230/  4/  6   N/A           2/ 3
$$

ILZ025>027-034>036-040-047-049-050-058-095>099-021200-
WEST-CENTRAL ILLINOIS

CITY           SKY/WX    TMP DP  RH WIND       PRES   REMARKS
QUINCY         CLOUDY    70  68  93 SW6       29.89F
GALESBURG*     PTCLDY    64  64  99 S3        29.89S FOG
MACOMB*        CLOUDY    70  69  98 CALM      29.90F
JACKSONVILLE*  CLOUDY    69  68  96 CALM      29.91F
PITTSFIELD*    CLOUDY    69  67  92 CALM      29.92R
$$

ILZ028>032-037-038-041>044-048-051>054-059>061-021200-
CENTRAL ILLINOIS

CITY           SKY/WX    TMP DP  RH WIND       PRES   REMARKS
PONTIAC        CLOUDY    72  70  94 SW6       29.89R
DECATUR        CLOUDY    69  67  93 S8        29.92R
PEORIA         CLOUDY    72  68  87 SW7       29.89S
LACON*         CLOUDY    69  67  93 SW3       29.87S
LINCOLN*       CLOUDY    71  69  94 CALM      29.89R
SPRINGFIELD    CLOUDY    70  68  93 SW5       29.91R
TAYLORVILLE    CLOUDY    68  66  94 S3        29.91R
$$

ILZ033-039-045-046-055>057-062-063-021200-
EAST-CENTRAL ILLINOIS

CITY           SKY/WX    TMP DP  RH WIND       PRES   REMARKS
CHAMPAIGN      CLOUDY    69  67  93 SW8       29.93R
DANVILLE*      CLOUDY    66  65  97 SW6       29.89F
RANTOUL*       CLOUDY    70  67  89 W5        29.93R
MATTOON        CLOUDY    67  66  97 S8        29.91R
PARIS*         CLOUDY    67  66  99 CALM      29.92S
$$

ILZ079-100>102-021200-
SOUTHWEST ILLINOIS

CITY           SKY/WX    TMP DP  RH WIND       PRES   REMARKS
BELLEVILLE     CLOUDY    68  68 100 VRB2      29.90S
SPARTA*        CLOUDY    69  68  98 S7        29.93F
$$

ILZ064>066-069>071-074>076-080>082-084>086-088>090-092>094-021200-
SOUTH-CENTRAL ILLINOIS

CITY           SKY/WX    TMP DP  RH WIND       PRES   REMARKS
CARBONDALE     CLOUDY    72  69  90 CALM      29.94S
CAIRO*         MOCLDY    78  72  81 S7        29.95S HX  81
EFFINGHAM*     LGT RAIN  67  65  91 S5        29.92F
MARION         CLOUDY    72  70  94 CALM      29.95F
MT. VERNON     CLOUDY    70  64  83 E3        29.93F
CENTRALIA*     CLOUDY    68  64  88 SE6       29.92R
SALEM*         CLOUDY    70  69  97 E8        29.91S
METROPOLIS*    MOCLDY    76  73  89 S3        29.96R
$$

ILZ067-068-072-073-078-083-087-091-021200-
SOUTHEAST ILLINOIS

CITY           SKY/WX    TMP DP  RH WIND       PRES   REMARKS
LAWRENCEVILLE  CLOUDY    67  67 100 S9        29.94F
FLORA*         LGT RAIN  67  67  98 SE5       29.94S
FAIRFIELD*     LGT RAIN  70  68  94 E6        29.92F
HARRISBURG*    CLOUDY    72  72 100 E5        29.95F
ROBINSON*      CLOUDY    68  68  99 S9        29.92F
CARMI*         TSTM      72  72  99 SE6       29.94S
$$

ABBREVIATIONS USED IN REMARKS
   TC - TEMPERATURE IN CELSIUS
  WCI - WIND CHILL INDEX
   HX - HEAT INDEX
  VSB - VISIBILITY
$$




USA.gov is the U.S. government's official web portal to all federal, state and local government web resources and services.